[[{"header":{"parameterUnit":"m.s-1","parameterCategory":1,"la1":30.2991,"la2":30.254,"lo1":-89.0895,"lo2":-89.0444,"dy":0.0017,"dx":0.0017,"nx":28,"ny":28,"refTime":"2023-08-30T21:00:00:Z","depth":0,"parameterNumber":2,"parameterNumberName":"U-component_of_WINDS"},"data":[0,0,0,0,0,0,0,0,0,0,0,0,0,0,0,0,0,0,0,0,0,0,0,0,0,0,0,0,0,0,0,0,0,0,0,0,0,0,0,0,0,0,0,0,0,0,0,0,0,0,0,0,0,0,0,0,0,0,-0.3004,-0.3004,0,-0.303,-0.3031,-0.3031,-0.2984,-0.2983,-0.2981,-0.298,-0.301,-0.3012,-0.3014,0,0,0,0,0,0,0,0,0,0,0,0,0,-0.2915,-0.2917,-0.3004,-0.3004,-0.3004,-0.303,-0.3031,-0.3031,-0.2985,-0.2983,-0.2981,-0.2979,-0.3009,-0.3012,-0.3015,0,0,0,0,0,0,0,0,0,0,0,0,0,-0.2949,-0.2918,-0.3004,-0.2984,-0.2983,-0.303,-0.3031,-0.3031,-0.2985,-0.2983,-0.298,-0.2978,-0.3008,-0.3012,-0.3015,-0.3084,0,0,-0.3025,-0.3027,0,0,0,0,0,0,0,0,-0.2947,-0.2952,-0.2987,-0.2986,-0.2984,-0.3001,-0.301,-0.3049,-0.2986,-0.2984,-0.298,-0.2977,-0.3009,-0.3012,-0.3023,-0.3085,-0.3086,-0.3026,-0.3028,-0.3029,-0.303,0,0,0,0,0,0,0,-0.2945,-0.2951,-0.3014,-0.2987,-0.2986,-0.2975,-0.2977,-0.3017,-0.301,-0.2984,-0.2981,-0.2984,-0.3008,-0.302,-0.3023,-0.3087,-0.3026,-0.3029,-0.3031,-0.3032,-0.3207,-0.3209,0,0,0,0,0,0,-0.2944,-0.2949,-0.3014,-0.3015,-0.2959,-0.2978,-0.2981,-0.2998,-0.3009,-0.3009,-0.2986,-0.2982,-0.3015,-0.3019,-0.3024,-0.3106,-0.3029,-0.3032,-0.3034,-0.3204,-0.3207,-0.321,0,0,0,0,0,0,-0.2943,-0.2951,-0.3012,-0.2981,-0.2988,-0.2982,-0.3003,-0.3,-0.3012,-0.3011,-0.301,-0.3,-0.3013,-0.3019,-0.3069,-0.3106,-0.3034,-0.3037,-0.3201,-0.3205,-0.3209,-0.327,0,0,0,0,0,0,-0.294,-0.295,-0.2976,-0.2982,-0.299,-0.3057,-0.3005,-0.3002,-0.3017,-0.3012,-0.3023,-0.3022,-0.3012,-0.3064,-0.3072,-0.311,-0.304,-0.3198,-0.3203,-0.3207,-0.3265,-0.3275,-0.3285,0,0,0,0,0,-0.2937,-0.2993,-0.2978,-0.2986,-0.3022,-0.3059,-0.3064,-0.3049,-0.302,-0.3047,-0.3046,-0.3022,-0.31,-0.307,-0.3078,-0.3117,-0.3195,-0.3201,-0.3207,-0.326,-0.3273,-0.3284,0,0,0,0,0,0,-0.2993,-0.2993,-0.2977,-0.3035,-0.3047,-0.3051,-0.3084,-0.3064,-0.3085,-0.3079,-0.3061,-0.3064,-0.3118,-0.3122,-0.3088,-0.3184,-0.3143,-0.3151,-0.318,-0.3193,-0.3203,-0.3202,-0.3043,0,0,0,0,0,-0.3012,-0.3041,-0.304,-0.3092,-0.3098,-0.309,-0.3106,-0.3093,-0.3105,-0.3111,-0.3114,-0.3127,-0.3155,-0.3173,-0.3199,-0.3264,-0.3266,-0.3295,-0.3305,-0.3313,-0.3321,-0.3356,-0.337,-0.3229,-0.3229,-0.3229,0,0,-0.3052,-0.3055,-0.3075,-0.3103,-0.3111,-0.3143,-0.3095,-0.313,-0.3154,-0.3116,-0.3164,-0.3166,-0.318,-0.3238,-0.3263,-0.3243,-0.336,-0.332,-0.3327,-0.3331,-0.3364,-0.3377,-0.3389,-0.3233,-0.3232,-0.3232,0,0,-0.3141,-0.3146,-0.319,-0.3198,-0.321,-0.3204,-0.3214,-0.3221,-0.3221,-0.3267,-0.324,-0.3267,-0.3315,-0.3326,-0.3338,-0.3429,-0.3409,-0.3438,-0.3492,-0.3526,-0.3537,-0.3547,-0.3582,-0.3594,-0.3445,-0.3445,-0.3445,0,-0.319,-0.3235,-0.3216,-0.3253,-0.3267,-0.3232,-0.3277,-0.3286,-0.3307,-0.3317,-0.3293,-0.3351,-0.3358,-0.3419,-0.3441,-0.3451,-0.3463,-0.3438,-0.3537,-0.3547,-0.3556,-0.3588,-0.3601,-0.3449,-0.3448,-0.3448,-0.3448,0,-0.3295,-0.3327,-0.3361,-0.3381,-0.3397,-0.3439,-0.3426,-0.3446,-0.3431,-0.3427,-0.3476,-0.3482,-0.3508,-0.352,-0.3507,-0.3579,-0.3566,-0.354,-0.3499,-0.3573,-0.3603,-0.3616,-0.3454,-0.3453,-0.3452,-0.3451,0,0,-0.3424,-0.3429,-0.3443,-0.3451,-0.346,-0.3485,-0.3524,-0.3549,-0.3567,-0.358,-0.3614,-0.3654,-0.3629,-0.3643,-0.363,-0.366,-0.3734,-0.363,-0.363,-0.3651,-0.3815,-0.3837,-0.3852,-0.3718,-0.372,-0.3722,-0.3814,0,-0.3514,-0.3581,-0.3564,-0.3632,-0.3661,-0.3628,-0.3662,-0.3672,-0.3669,-0.3694,-0.369,-0.372,-0.3684,-0.3692,-0.372,-0.3719,-0.3767,-0.3711,-0.3751,-0.3753,-0.3752,-0.3867,-0.3891,-0.3978,-0.3826,-0.3828,-0.3829,0,-0.3629,-0.3647,-0.3717,-0.3721,-0.3733,-0.3764,-0.3785,-0.3809,-0.3819,-0.3814,-0.3828,-0.3809,-0.3848,-0.3804,-0.3859,-0.3822,-0.3836,-0.3838,-0.3841,-0.3847,-0.3798,-0.3879,-0.4005,-0.4019,-0.3848,-0.3846,-0.3845,0,-0.3719,-0.376,-0.3807,-0.3815,-0.382,-0.3843,-0.3846,-0.3854,-0.3869,-0.3887,-0.3897,-0.3919,-0.3933,-0.395,-0.3938,-0.3906,-0.3995,-0.3949,-0.3994,-0.3995,-0.4018,-0.4017,-0.4151,-0.4022,-0.4022,-0.4022,-0.4021,0,-0.3824,-0.3869,-0.3847,-0.3877,-0.3926,-0.3905,-0.3954,-0.3954,-0.3961,-0.399,-0.3961,-0.3989,-0.397,-0.3996,-0.3986,-0.4034,-0.4039,-0.4038,-0.4036,-0.4042,-0.4043,-0.4054,-0.4049,-0.4025,-0.4024,-0.4024,-0.4023,0,-0.3934,-0.3921,-0.3971,-0.3971,-0.3972,-0.4008,-0.4008,-0.4036,-0.4029,-0.4067,-0.4074,-0.4065,-0.4095,-0.4083,-0.4114,-0.4108,-0.4169,-0.4157,-0.4166,-0.4164,-0.421,-0.4207,-0.4359,-0.4378,-0.4235,-0.4236,-0.4237,0,-0.4003,-0.4037,-0.404,-0.4056,-0.4062,-0.4089,-0.4104,-0.4084,-0.4102,-0.4115,-0.4141,-0.4168,-0.4189,-0.4238,-0.4234,-0.4258,-0.4248,-0.4299,-0.4252,-0.4258,-0.4252,-0.4252,-0.4256,-0.431,-0.4312,-0.4313,-0.4315,0,-0.4128,-0.412,-0.4142,-0.4162,-0.4181,-0.4196,-0.4209,-0.4225,-0.4205,-0.4226,-0.4255,-0.4271,-0.4302,-0.433,-0.4351,-0.4355,-0.4333,-0.4329,-0.4341,-0.435,-0.4355,-0.4355,-0.4195,-0.4326,-0.4325,-0.4324,-0.4324,-0.4323,-0.4222,-0.425,-0.4256,-0.4282,-0.4289,-0.4302,-0.4328,-0.4323,-0.4347,-0.4371,-0.4357,-0.4392,-0.44,-0.4426,-0.4433,-0.446,-0.444,-0.4457,-0.4462,-0.4467,-0.4474,-0.4347,-0.4463,-0.4463,-0.4463,-0.4462,-0.4462,0,-0.4347,-0.4349,-0.4373,-0.4391,-0.4412,-0.4385,-0.4398,-0.4417,-0.4448,-0.4457,-0.4477,-0.4511,-0.4537,-0.4534,-0.4558,-0.4581,-0.4571,-0.4588,-0.4588,-0.4589,-0.449,-0.4478,-0.4596,-0.4596,-0.4595,-0.4595,-0.4595,-0.4595,-0.4415,-0.4462,-0.4454,-0.4504,-0.4506,-0.4539,-0.4548,-0.456,-0.4567,-0.4606,-0.4627,-0.4624,-0.4628,-0.4652,-0.4675,-0.4673,-0.4685,-0.4707,-0.4702,-0.4609,-0.4596,-0.4584,-0.4573,-0.4708,-0.4709,-0.4799,-0.48,-0.4801]},{"header":{"parameterUnit":"m.s-1","parameterCategory":1,"la1":30.2991,"la2":30.254,"lo1":-89.0895,"lo2":-89.0444,"dy":0.0017,"dx":0.0017,"nx":28,"ny":28,"refTime":"2023-08-30T21:00:00:Z","depth":0,"parameterNumber":3,"parameterNumberName":"V-component_of_WINDS"},"data":[0,0,0,0,0,0,0,0,0,0,0,0,0,0,0,0,0,0,0,0,0,0,0,0,0,0,0,0,0,0,0,0,0,0,0,0,0,0,0,0,0,0,0,0,0,0,0,0,0,0,0,0,0,0,0,0,0,0,-4.4818,-4.4819,0,-4.4934,-4.4936,-4.4937,-4.4882,-4.4879,-4.4876,-4.4873,-4.499,-4.4996,-4.5001,0,0,0,0,0,0,0,0,0,0,0,0,0,-4.4546,-4.4551,-4.4818,-4.482,-4.4821,-4.4934,-4.4936,-4.4937,-4.4883,-4.4879,-4.4875,-4.4872,-4.4988,-4.4995,-4.5002,0,0,0,0,0,0,0,0,0,0,0,0,0,-4.4663,-4.4553,-4.4818,-4.4807,-4.4808,-4.4934,-4.4936,-4.4938,-4.4883,-4.4879,-4.4875,-4.487,-4.4986,-4.4994,-4.5003,-4.5146,0,0,-4.503,-4.5034,0,0,0,0,0,0,0,0,-4.4657,-4.4673,-4.4807,-4.4808,-4.4809,-4.4889,-4.4882,-4.5007,-4.4885,-4.4855,-4.4873,-4.4868,-4.496,-4.4971,-4.5002,-4.5151,-4.5156,-4.5031,-4.5036,-4.504,-4.5042,0,0,0,0,0,0,0,-4.4649,-4.4668,-4.4864,-4.4809,-4.481,-4.4796,-4.4808,-4.4906,-4.493,-4.4857,-4.4853,-4.4868,-4.4959,-4.4994,-4.5004,-4.5158,-4.503,-4.5038,-4.5044,-4.5047,-4.5428,-4.5433,0,0,0,0,0,0,-4.4641,-4.4662,-4.486,-4.4867,-4.472,-4.4804,-4.4818,-4.4868,-4.4929,-4.4934,-4.4871,-4.4865,-4.4981,-4.4994,-4.5008,-4.5179,-4.504,-4.5048,-4.5053,-4.5423,-4.5429,-4.5435,0,0,0,0,0,0,-4.4635,-4.4659,-4.4856,-4.4764,-4.4788,-4.4814,-4.4871,-4.4873,-4.4907,-4.494,-4.4944,-4.4902,-4.4978,-4.4996,-4.5112,-4.5182,-4.5052,-4.506,-4.5418,-4.5425,-4.5432,-4.5521,0,0,0,0,0,0,-4.4628,-4.4658,-4.4713,-4.4765,-4.4793,-4.4959,-4.4875,-4.4878,-4.4922,-4.4915,-4.497,-4.4975,-4.4976,-4.5099,-4.512,-4.5192,-4.5067,-4.5411,-4.5421,-4.543,-4.5512,-4.5531,-4.5546,0,0,0,0,0,-4.4618,-4.4733,-4.4716,-4.474,-4.4862,-4.4963,-4.4978,-4.4977,-4.4928,-4.4983,-4.5005,-4.4973,-4.5171,-4.5111,-4.5135,-4.521,-4.5407,-4.5418,-4.5429,-4.5504,-4.5527,-4.5546,0,0,0,0,0,0,-4.4688,-4.474,-4.4721,-4.4857,-4.4906,-4.4953,-4.5023,-4.5002,-4.5065,-4.5055,-4.505,-4.5063,-4.5184,-4.5208,-4.5141,-4.535,-4.5281,-4.5297,-4.533,-4.5352,-4.5369,-4.536,-4.5074,0,0,0,0,0,-4.4719,-4.4797,-4.4838,-4.4953,-4.4979,-4.4997,-4.504,-4.5036,-4.5086,-4.5106,-4.5136,-4.5185,-4.5258,-4.5306,-4.5375,-4.5515,-4.5526,-4.5578,-4.5595,-4.5609,-4.5623,-4.5698,-4.5722,-4.5471,-4.547,-4.547,0,0,-4.4784,-4.4822,-4.4871,-4.4968,-4.5005,-4.5085,-4.5015,-4.5102,-4.5161,-4.5119,-4.5231,-4.5254,-4.5309,-4.5437,-4.5495,-4.5461,-4.5695,-4.5623,-4.5634,-4.5641,-4.5712,-4.5736,-4.5757,-4.5478,-4.5477,-4.5475,0,0,-4.4943,-4.498,-4.508,-4.5119,-4.5176,-4.5188,-4.5212,-4.5263,-4.5277,-4.5389,-4.5359,-4.5428,-4.5554,-4.5594,-4.5631,-4.5804,-4.5777,-4.5827,-4.5917,-4.599,-4.6009,-4.6027,-4.6088,-4.6111,-4.5841,-4.5841,-4.5841,0,-4.5016,-4.5136,-4.5134,-4.5224,-4.5267,-4.5233,-4.5333,-4.5371,-4.5448,-4.5478,-4.5439,-4.5596,-4.5631,-4.5767,-4.581,-4.5841,-4.5867,-4.5821,-4.6007,-4.6025,-4.6041,-4.6099,-4.6122,-4.5846,-4.5846,-4.5845,-4.5845,0,-4.5223,-4.5307,-4.538,-4.5457,-4.5508,-4.5603,-4.5613,-4.5665,-4.5656,-4.5671,-4.5784,-4.5824,-4.59,-4.5932,-4.5924,-4.6068,-4.6045,-4.6007,-4.5937,-4.607,-4.6125,-4.6148,-4.5855,-4.5852,-4.5851,-4.5849,0,0,-4.543,-4.5503,-4.553,-4.5564,-4.5625,-4.5689,-4.5782,-4.5857,-4.5901,-4.5955,-4.6032,-4.6139,-4.6104,-4.6146,-4.6141,-4.6205,-4.634,-4.6159,-4.616,-4.6191,-4.65,-4.6529,-4.6555,-4.6322,-4.6326,-4.633,-4.6495,0,-4.5593,-4.5757,-4.5757,-4.5907,-4.5984,-4.5953,-4.6033,-4.6079,-4.6095,-4.6161,-4.6178,-4.6255,-4.6203,-4.6228,-4.629,-4.631,-4.6402,-4.6298,-4.6393,-4.6396,-4.638,-4.6584,-4.6614,-4.6769,-4.6517,-4.6521,-4.6523,0,-4.5806,-4.5868,-4.6026,-4.6075,-4.6107,-4.618,-4.6249,-4.6313,-4.6364,-4.6371,-4.6417,-4.6402,-4.6495,-4.6423,-4.6551,-4.648,-4.6519,-4.6535,-4.654,-4.6549,-4.6468,-4.6598,-4.6818,-4.6841,-4.6557,-4.6554,-4.6552,0,-4.5941,-4.6063,-4.6174,-4.6204,-4.6264,-4.6315,-4.6343,-4.6389,-4.6434,-4.6493,-4.6522,-4.6591,-4.6629,-4.6683,-4.6686,-4.6633,-4.6815,-4.6743,-4.6823,-4.6823,-4.6863,-4.686,-4.7093,-4.6888,-4.6887,-4.6887,-4.6887,0,-4.6123,-4.6221,-4.6235,-4.6303,-4.6412,-4.641,-4.6517,-4.6539,-4.6581,-4.6652,-4.6628,-4.6695,-4.6696,-4.6764,-4.6767,-4.6872,-4.6889,-4.6897,-4.6896,-4.6899,-4.6898,-4.6924,-4.6914,-4.6893,-4.6892,-4.6891,-4.689,0,-4.6292,-4.6305,-4.6424,-4.6471,-4.6485,-4.6563,-4.6603,-4.6667,-4.668,-4.677,-4.6791,-4.6813,-4.6891,-4.69,-4.6992,-4.6994,-4.712,-4.7108,-4.7104,-4.7102,-4.7181,-4.7174,-4.7438,-4.7473,-4.7246,-4.7248,-4.725,0,-4.6408,-4.6483,-4.6538,-4.6584,-4.6615,-4.6689,-4.6735,-4.6736,-4.6784,-4.6847,-4.6903,-4.698,-4.7041,-4.7168,-4.7191,-4.726,-4.725,-4.7338,-4.726,-4.726,-4.7251,-4.7246,-4.7254,-4.7353,-4.7355,-4.7357,-4.7359,0,-4.6612,-4.6615,-4.6682,-4.6752,-4.6808,-4.6863,-4.6914,-4.6953,-4.696,-4.7015,-4.7096,-4.7143,-4.7237,-4.7313,-4.7381,-4.7407,-4.7385,-4.7383,-4.7405,-4.7409,-4.7403,-4.7407,-4.7145,-4.7377,-4.7376,-4.7374,-4.7373,-4.7372,-4.6758,-4.6822,-4.6871,-4.6947,-4.6986,-4.7034,-4.7097,-4.7119,-4.7186,-4.7263,-4.7259,-4.7347,-4.7394,-4.7484,-4.7516,-4.7584,-4.7555,-4.7587,-4.7595,-4.7603,-4.7611,-4.7392,-4.7596,-4.7596,-4.7595,-4.7595,-4.7595,0,-4.696,-4.699,-4.706,-4.7133,-4.7192,-4.7166,-4.7221,-4.7272,-4.7351,-4.7397,-4.7458,-4.755,-4.7623,-4.7652,-4.7723,-4.7772,-4.7763,-4.7791,-4.7787,-4.7794,-4.7633,-4.7607,-4.7797,-4.7797,-4.7797,-4.7797,-4.7797,-4.7797,-4.7072,-4.7181,-4.7189,-4.7316,-4.7344,-4.7432,-4.7465,-4.7509,-4.7546,-4.7651,-4.7712,-4.773,-4.7769,-4.7843,-4.7908,-4.7915,-4.7942,-4.7974,-4.7976,-4.7825,-4.7805,-4.7786,-4.7761,-4.798,-4.798,-4.813,-4.8132,-4.8133]}]]